When you browse on this site, cookies collect data to enhance your experience and personalize the content and advertising you see.
Visit our Privacy Policy to learn more. By continuing to use the site, you agree to this use of cookies and data.

Stündliche Wetter Bolshie Memi

Heute, 27 September, Sonntag

Zeit Temperatur Niederschläge Wind Luftdruck Luftfeuchtigkeit
00:00 +10°C° 0 mm 2 m/S 762 mmHg 67%
01:00 +10°C° 0 mm 2 m/S 762 mmHg 66%
02:00 +10°C° 0 mm 2 m/S 762 mmHg 66%
03:00 +10°C° 0 mm 2 m/S 762 mmHg 65%
04:00 +10°C° 0 mm 2 m/S 763 mmHg 66%
05:00 +9°C° 0 mm 2 m/S 763 mmHg 67%
06:00 +9°C° 0 mm 2 m/S 763 mmHg 68%
07:00 +10°C° 0 mm 2 m/S 763 mmHg 64%
08:00 +13°C° 0 mm 2 m/S 763 mmHg 61%
09:00 +14°C° 0 mm 2 m/S 763 mmHg 58%
10:00 +15°C° 0 mm 2 m/S 763 mmHg 54%
11:00 +16°C° 0 mm 2 m/S 763 mmHg 50%
12:00 +17°C° 0 mm 2 m/S 764 mmHg 46%
13:00 +17°C° 0 mm 2 m/S 764 mmHg 46%
14:00 +17°C° 0 mm 2 m/S 764 mmHg 46%
15:00 +17°C° 0 mm 2 m/S 764 mmHg 47%
16:00 +15°C° 0 mm 2 m/S 763 mmHg 50%
17:00 +14°C° 0 mm 2 m/S 763 mmHg 54%
18:00 +13°C° 0 mm 2 m/S 763 mmHg 58%
19:00 +12°C° 0 mm 2 m/S 763 mmHg 60%
20:00 +12°C° 0 mm 1 m/S 763 mmHg 61%
21:00 +11°C° 0 mm 1 m/S 763 mmHg 63%
22:00 +11°C° 0 mm 1 m/S 764 mmHg 63%
23:00 +11°C° 0 mm 1 m/S 764 mmHg 64%

Morgen, 28 September, Montag

Zeit Temperatur Niederschläge Wind Luftdruck Luftfeuchtigkeit
00:00 +11°C° 0 mm 1 m/S 764 mmHg 65%
01:00 +11°C° 0 mm 1 m/S 764 mmHg 65%
02:00 +11°C° 0 mm 1 m/S 764 mmHg 65%
03:00 +11°C° 0 mm 1 m/S 764 mmHg 64%
04:00 +10°C° 0 mm 1 m/S 764 mmHg 65%
05:00 +10°C° 0 mm 1 m/S 764 mmHg 66%
06:00 +10°C° 0 mm 1 m/S 764 mmHg 67%
07:00 +11°C° 0 mm 1 m/S 764 mmHg 63%
08:00 +13°C° 0 mm 1 m/S 764 mmHg 58%
09:00 +14°C° 0 mm 1 m/S 765 mmHg 54%
10:00 +15°C° 0 mm 2 m/S 765 mmHg 50%
11:00 +16°C° 0 mm 2 m/S 765 mmHg 47%
12:00 +17°C° 0 mm 2 m/S 765 mmHg 44%
13:00 +18°C° 0 mm 2 m/S 764 mmHg 43%
14:00 +18°C° 0 mm 2 m/S 764 mmHg 43%
15:00 +18°C° 0 mm 2 m/S 764 mmHg 43%
16:00 +16°C° 0 mm 2 m/S 764 mmHg 47%
17:00 +15°C° 0 mm 1 m/S 764 mmHg 52%
18:00 +13°C° 0 mm 1 m/S 764 mmHg 56%
19:00 +12°C° 0 mm 1 m/S 764 mmHg 57%
20:00 +12°C° 0 mm 1 m/S 764 mmHg 57%
21:00 +11°C° 0 mm 1 m/S 764 mmHg 57%
22:00 +11°C° 0 mm 1 m/S 764 mmHg 59%
23:00 +11°C° 0 mm 1 m/S 764 mmHg 61%

übermorgen, 29 September, Dienstag

Zeit Temperatur Niederschläge Wind Luftdruck Luftfeuchtigkeit
00:00 +10°C° 0 mm 1 m/S 764 mmHg 63%
01:00 +10°C° 0 mm 1 m/S 764 mmHg 64%
02:00 +10°C° 0 mm 1 m/S 764 mmHg 65%
03:00 +10°C° 0 mm 1 m/S 765 mmHg 66%
04:00 +9°C° 0 mm 1 m/S 765 mmHg 67%
05:00 +9°C° 0 mm 1 m/S 765 mmHg 67%
06:00 +9°C° 0 mm 1 m/S 765 mmHg 68%
07:00 +11°C° 0 mm 1 m/S 764 mmHg 64%
08:00 +13°C° 0 mm 1 m/S 764 mmHg 60%
09:00 +14°C° 0 mm 1 m/S 764 mmHg 56%
10:00 +16°C° 0 mm 2 m/S 764 mmHg 53%
11:00 +17°C° 0 mm 2 m/S 764 mmHg 50%
12:00 +18°C° 0 mm 2 m/S 764 mmHg 47%
13:00 +18°C° 0 mm 2 m/S 764 mmHg 47%
14:00 +18°C° 0 mm 2 m/S 764 mmHg 48%
15:00 +18°C° 0 mm 2 m/S 763 mmHg 48%
16:00 +16°C° 0 mm 2 m/S 763 mmHg 54%
17:00 +15°C° 0 mm 2 m/S 763 mmHg 60%
18:00 +13°C° 0 mm 2 m/S 763 mmHg 66%
19:00 +13°C° 0 mm 2 m/S 763 mmHg 67%
20:00 +12°C° 0 mm 2 m/S 763 mmHg 69%
21:00 +12°C° 0 mm 2 m/S 763 mmHg 70%
22:00 +10°C° 0 mm 2 m/S 763 mmHg 72%
23:00 +10°C° 0 mm 2 m/S 763 mmHg 73%

30 September, Mittwoch

Zeit Temperatur Niederschläge Wind Luftdruck Luftfeuchtigkeit
00:00 +10°C° 0 mm 2 m/S 763 mmHg 74%
01:00 +10°C° 0 mm 1 m/S 763 mmHg 76%
02:00 +10°C° 0 mm 1 m/S 763 mmHg 77%
03:00 +10°C° 0 mm 1 m/S 763 mmHg 79%
04:00 +9°C° 0 mm 1 m/S 763 mmHg 80%
05:00 +9°C° 0 mm 1 m/S 763 mmHg 81%
06:00 +9°C° 0 mm 1 m/S 763 mmHg 82%
07:00 +10°C° 0 mm 2 m/S 762 mmHg 77%
08:00 +12°C° 0 mm 2 m/S 762 mmHg 71%
09:00 +14°C° 0 mm 2 m/S 762 mmHg 66%
10:00 +14°C° 0 mm 3 m/S 762 mmHg 62%
11:00 +16°C° 0 mm 3 m/S 762 mmHg 59%
12:00 +17°C° 0 mm 3 m/S 762 mmHg 55%
13:00 +17°C° 0 mm 3 m/S 762 mmHg 56%
14:00 +17°C° 0 mm 3 m/S 761 mmHg 56%
15:00 +17°C° 0 mm 3 m/S 761 mmHg 57%
16:00 +16°C° 0 mm 3 m/S 761 mmHg 63%
17:00 +13°C° 0 mm 3 m/S 761 mmHg 69%
18:00 +13°C° 0 mm 2 m/S 761 mmHg 74%
19:00 +12°C° 0 mm 2 m/S 761 mmHg 75%
20:00 +12°C° 0 mm 2 m/S 761 mmHg 76%
21:00 +12°C° 0 mm 2 m/S 761 mmHg 78%
22:00 +10°C° 0 mm 2 m/S 761 mmHg 79%
23:00 +11°C° 0 mm 1 m/S 761 mmHg 80%

1 Oktober, Donnerstag

Zeit Temperatur Niederschläge Wind Luftdruck Luftfeuchtigkeit
00:00 +11°C° 0 mm 1 m/S 761 mmHg 82%
01:00 +11°C° 0 mm 1 m/S 761 mmHg 82%
02:00 +10°C° 0 mm 1 m/S 761 mmHg 83%
03:00 +10°C° 0 mm 1 m/S 761 mmHg 84%
04:00 +10°C° 0 mm 1 m/S 761 mmHg 84%
05:00 +10°C° 0 mm 1 m/S 762 mmHg 85%
06:00 +10°C° 0 mm 1 m/S 762 mmHg 86%
07:00 +10°C° 0 mm 2 m/S 762 mmHg 81%
08:00 +13°C° 0 mm 2 m/S 762 mmHg 75%
09:00 +15°C° 0 mm 2 m/S 762 mmHg 70%
10:00 +16°C° 0 mm 2 m/S 762 mmHg 65%
11:00 +17°C° 0 mm 2 m/S 762 mmHg 61%
12:00 +18°C° 0 mm 2 m/S 761 mmHg 57%
13:00 +18°C° 0 mm 2 m/S 761 mmHg 56%
14:00 +18°C° 0 mm 2 m/S 761 mmHg 56%
15:00 +18°C° 0 mm 2 m/S 761 mmHg 56%
16:00 +17°C° 0 mm 2 m/S 761 mmHg 62%
17:00 +15°C° 0 mm 2 m/S 761 mmHg 67%
18:00 +13°C° 0 mm 2 m/S 761 mmHg 73%
19:00 +13°C° 0 mm 2 m/S 761 mmHg 74%
20:00 +13°C° 0 mm 2 m/S 761 mmHg 75%
21:00 +12°C° 0 mm 1 m/S 761 mmHg 76%
22:00 +12°C° 0 mm 1 m/S 761 mmHg 77%
23:00 +11°C° 0 mm 1 m/S 762 mmHg 78%

2 Oktober, Freitag

Zeit Temperatur Niederschläge Wind Luftdruck Luftfeuchtigkeit
00:00 +11°C° 0 mm 1 m/S 762 mmHg 79%
01:00 +11°C° 0 mm 1 m/S 762 mmHg 81%
02:00 +11°C° 0 mm 1 m/S 762 mmHg 83%
03:00 +10°C° 0 mm 1 m/S 762 mmHg 85%
04:00 +10°C° 0 mm 1 m/S 762 mmHg 86%
05:00 +10°C° 0 mm 1 m/S 762 mmHg 87%
06:00 +10°C° 0 mm 1 m/S 762 mmHg 89%
07:00 +11°C° 0 mm 1 m/S 762 mmHg 83%
08:00 +13°C° 0 mm 2 m/S 762 mmHg 78%
09:00 +14°C° 0 mm 2 m/S 762 mmHg 73%
10:00 +16°C° 0 mm 2 m/S 762 mmHg 67%
11:00 +17°C° 0 mm 2 m/S 762 mmHg 62%
12:00 +18°C° 0 mm 3 m/S 762 mmHg 57%
13:00 +18°C° 0 mm 3 m/S 762 mmHg 56%
14:00 +18°C° 0 mm 2 m/S 762 mmHg 55%
15:00 +18°C° 0 mm 2 m/S 761 mmHg 55%
16:00 +16°C° 0 mm 2 m/S 761 mmHg 60%
17:00 +15°C° 0 mm 2 m/S 761 mmHg 65%
18:00 +13°C° 0 mm 2 m/S 761 mmHg 70%
19:00 +13°C° 0 mm 2 m/S 761 mmHg 72%
20:00 +12°C° 0 mm 2 m/S 761 mmHg 73%
21:00 +12°C° 0 mm 1 m/S 761 mmHg 74%
22:00 +11°C° 0 mm 1 m/S 762 mmHg 76%
23:00 +11°C° 0 mm 1 m/S 762 mmHg 77%
Mehr zeigen